AFL347 UIAA-UIII

Flight info

Callsign AFL347
Flight time 0h 50m
Altitude 36000
Route KONIR1F KONIR A45 USONA USONA4A
Aircraft A320/M-SDE3FGHIRWY/LB1

Departure

Time 2026-05-07 12:58
Airport Chita-Kadala International Airport (UIAA)

Arrival

Time 2026-05-07 13:48
Airport Irkutsk International Airport (UIII)
Time Latitude Longitude Altitude Speed Heading
2026-05-07 12:33 52.02113 113.30748 2278 ft 0 kts 287°
2026-05-07 12:52 52.02113 113.30747 2277 ft 0 kts 287°
2026-05-07 12:52 52.02117 113.30727 2277 ft 4 kts 287°
2026-05-07 12:52 52.02150 113.30707 2277 ft 7 kts 26°
2026-05-07 12:52 52.02190 113.30725 2277 ft 10 kts 14°
2026-05-07 12:53 52.02233 113.30806 2277 ft 11 kts 105°
2026-05-07 12:53 52.02239 113.30910 2277 ft 2 kts 35°
2026-05-07 12:53 52.02270 113.30915 2277 ft 7 kts
2026-05-07 12:53 52.02331 113.30947 2277 ft 11 kts 34°
2026-05-07 12:54 52.02334 113.31087 2277 ft 15 kts 99°
2026-05-07 12:54 52.02310 113.31284 2277 ft 20 kts 103°
2026-05-07 12:54 52.02283 113.31517 2277 ft 22 kts 99°
2026-05-07 12:54 52.02253 113.31773 2277 ft 24 kts 101°
2026-05-07 12:55 52.02226 113.32029 2277 ft 20 kts 91°
2026-05-07 12:55 52.02249 113.32257 2278 ft 21 kts 82°
2026-05-07 12:55 52.02285 113.32458 2278 ft 16 kts 40°
2026-05-07 12:55 52.02314 113.32475 2279 ft 0 kts 11°
2026-05-07 12:56 52.02318 113.32476 2279 ft 2 kts 11°
2026-05-07 12:56 52.02338 113.32482 2280 ft 4 kts 11°
2026-05-07 12:56 52.02383 113.32484 2279 ft 9 kts 338°
2026-05-07 12:57 52.02400 113.32386 2279 ft 10 kts 281°
2026-05-07 12:57 52.02433 113.32105 2279 ft 57 kts 281°
2026-05-07 12:57 52.02556 113.31089 2280 ft 123 kts 281°
2026-05-07 12:57 52.02750 113.29454 2428 ft 161 kts 281°
2026-05-07 12:58 52.02954 113.27645 3012 ft 167 kts 277°
2026-05-07 12:58 52.02909 113.25750 3660 ft 173 kts 268°
2026-05-07 12:58 52.02782 113.23787 4322 ft 173 kts 266°
2026-05-07 12:58 52.02672 113.21881 4933 ft 171 kts 272°
2026-05-07 12:59 52.02747 113.19962 5532 ft 171 kts 278°
2026-05-07 12:59 52.02887 113.17919 5824 ft 192 kts 278°
2026-05-07 12:59 52.03051 113.15639 6102 ft 215 kts 278°
2026-05-07 12:59 52.03224 113.13152 6486 ft 234 kts 278°
2026-05-07 13:00 52.03408 113.10390 6833 ft 258 kts 277°
2026-05-07 13:00 52.03595 113.07432 7503 ft 270 kts 277°
2026-05-07 13:00 52.03780 113.04389 8412 ft 272 kts 277°
2026-05-07 13:00 52.03961 113.01308 9358 ft 275 kts 276°
2026-05-07 13:01 52.04142 112.98199 10250 ft 280 kts 276°
2026-05-07 13:01 52.04331 112.94928 10572 ft 303 kts 276°
2026-05-07 13:01 52.04533 112.91427 11138 ft 315 kts 276°
2026-05-07 13:01 52.04739 112.87849 11896 ft 321 kts 276°
2026-05-07 13:02 52.04945 112.84218 12696 ft 325 kts 276°
2026-05-07 13:02 52.05152 112.80536 13483 ft 330 kts 276°
2026-05-07 13:02 52.05362 112.76793 14212 ft 334 kts 276°
2026-05-07 13:02 52.05573 112.73013 14897 ft 338 kts 276°
2026-05-07 13:03 52.05785 112.69191 15603 ft 342 kts 277°
2026-05-07 13:03 52.05998 112.65321 16292 ft 345 kts 277°
2026-05-07 13:03 52.06213 112.61412 16962 ft 349 kts 277°
2026-05-07 13:03 52.06433 112.57456 17620 ft 354 kts 277°
2026-05-07 13:04 52.06653 112.53457 18286 ft 357 kts 278°
2026-05-07 13:04 52.06875 112.49409 18879 ft 360 kts 278°
2026-05-07 13:04 52.07095 112.45345 19505 ft 362 kts 278°
2026-05-07 13:04 52.07314 112.41252 20101 ft 365 kts 278°
2026-05-07 13:05 52.07519 112.37118 20707 ft 368 kts 277°
2026-05-07 13:05 52.07711 112.32952 21303 ft 371 kts 277°
2026-05-07 13:05 52.07898 112.28747 21901 ft 375 kts 277°
2026-05-07 13:05 52.08086 112.24499 22493 ft 378 kts 277°
2026-05-07 13:06 52.08277 112.20218 23079 ft 381 kts 277°
2026-05-07 13:06 52.08470 112.15905 23640 ft 384 kts 277°
2026-05-07 13:06 52.08665 112.11545 24102 ft 387 kts 278°
2026-05-07 13:06 52.08860 112.07171 24583 ft 390 kts 278°
2026-05-07 13:07 52.09055 112.02756 25054 ft 392 kts 278°
2026-05-07 13:07 52.09248 111.98379 25509 ft 395 kts 278°
2026-05-07 13:07 52.09442 111.93916 25956 ft 397 kts 278°
2026-05-07 13:07 52.09632 111.89419 26402 ft 399 kts 278°
2026-05-07 13:08 52.09821 111.84903 26816 ft 402 kts 278°
2026-05-07 13:08 52.10012 111.80356 27246 ft 404 kts 278°
2026-05-07 13:08 52.10203 111.75780 27670 ft 406 kts 278°
2026-05-07 13:08 52.10395 111.71178 28082 ft 409 kts 278°
2026-05-07 13:09 52.10585 111.66559 28492 ft 411 kts 278°
2026-05-07 13:09 52.10771 111.61906 28889 ft 413 kts 278°
2026-05-07 13:09 52.10955 111.57233 29311 ft 414 kts 278°
2026-05-07 13:09 52.11139 111.52555 29728 ft 416 kts 278°
2026-05-07 13:10 52.11327 111.47854 30106 ft 417 kts 278°
2026-05-07 13:10 52.11514 111.43125 30417 ft 419 kts 278°
2026-05-07 13:10 52.11696 111.38378 30708 ft 421 kts 278°
2026-05-07 13:10 52.11876 111.33608 30995 ft 423 kts 278°
2026-05-07 13:11 52.12055 111.28808 31272 ft 426 kts 278°
2026-05-07 13:11 52.12234 111.23988 31542 ft 428 kts 278°
2026-05-07 13:11 52.12412 111.19154 31881 ft 428 kts 278°
2026-05-07 13:11 52.12587 111.14322 32260 ft 427 kts 278°
2026-05-07 13:12 52.12760 111.09500 32588 ft 427 kts 278°
2026-05-07 13:12 52.12932 111.04689 33007 ft 425 kts 278°
2026-05-07 13:12 52.13101 110.99887 33404 ft 424 kts 278°
2026-05-07 13:12 52.13267 110.95102 33788 ft 423 kts 278°
2026-05-07 13:13 52.13432 110.90321 34128 ft 423 kts 278°
2026-05-07 13:13 52.13594 110.85563 34427 ft 423 kts 278°
2026-05-07 13:13 52.13755 110.80790 34729 ft 422 kts 277°
2026-05-07 13:13 52.13909 110.76082 35017 ft 422 kts 277°
2026-05-07 13:14 52.14065 110.71309 35300 ft 422 kts 277°
2026-05-07 13:14 52.14220 110.66550 35576 ft 421 kts 277°
2026-05-07 13:14 52.14374 110.61792 35848 ft 421 kts 277°
2026-05-07 13:14 52.14623 110.53938 36018 ft 419 kts 277°
2026-05-07 13:15 52.15185 110.35248 36023 ft 412 kts 277°
2026-05-07 13:15 52.16118 110.01947 36017 ft 411 kts 276°
2026-05-07 13:16 52.16728 109.64674 35976 ft 415 kts 273°
2026-05-07 13:16 52.16380 109.27259 36049 ft 408 kts 274°
2026-05-07 13:17 52.15991 108.89973 35955 ft 414 kts 273°
2026-05-07 13:17 52.15488 108.52778 36043 ft 406 kts 273°
2026-05-07 13:18 52.14868 108.15763 35968 ft 412 kts 272°
2026-05-07 13:18 52.14134 107.78870 36055 ft 401 kts 272°
2026-05-07 13:19 52.13476 107.48560 36045 ft 401 kts 272°
2026-05-07 13:19 52.13228 107.39529 36010 ft 402 kts 270°
2026-05-07 13:20 52.12841 107.30447 36006 ft 402 kts 270°
2026-05-07 13:20 52.12419 107.21385 36001 ft 402 kts 270°
2026-05-07 13:21 52.12026 107.12298 36010 ft 402 kts 270°
2026-05-07 13:21 52.11641 107.03239 36007 ft 402 kts 270°
2026-05-07 13:22 52.11240 106.94112 35999 ft 402 kts 270°
2026-05-07 13:22 52.10833 106.85047 36009 ft 402 kts 269°
2026-05-07 13:23 52.10405 106.75985 36012 ft 402 kts 269°
2026-05-07 13:23 52.10183 106.71430 35792 ft 404 kts 269°
2026-05-07 13:23 52.09961 106.66954 35553 ft 401 kts 269°
2026-05-07 13:24 52.09734 106.62445 35311 ft 399 kts 269°
2026-05-07 13:24 52.09506 106.57967 35057 ft 396 kts 269°
2026-05-07 13:24 52.09280 106.53529 34811 ft 393 kts 269°
2026-05-07 13:24 52.09053 106.49107 34563 ft 390 kts 269°
2026-05-07 13:25 52.08828 106.44739 34323 ft 386 kts 269°
2026-05-07 13:25 52.08603 106.40408 34053 ft 381 kts 269°
2026-05-07 13:25 52.08377 106.36145 33606 ft 376 kts 268°
2026-05-07 13:25 52.08153 106.31938 33154 ft 371 kts 268°
2026-05-07 13:26 52.07933 106.27784 32696 ft 368 kts 268°
2026-05-07 13:26 52.07722 106.23653 32217 ft 365 kts 269°
2026-05-07 13:26 52.07522 106.19562 31753 ft 362 kts 269°
2026-05-07 13:26 52.07325 106.15500 31298 ft 359 kts 269°
2026-05-07 13:27 52.07127 106.11460 30840 ft 357 kts 269°
2026-05-07 13:27 52.06927 106.07452 30393 ft 355 kts 268°
2026-05-07 13:27 52.06723 106.03457 29934 ft 354 kts 268°
2026-05-07 13:27 52.06413 105.97415 29256 ft 349 kts 268°
2026-05-07 13:28 52.06146 105.92252 28723 ft 343 kts 268°
2026-05-07 13:28 52.05947 105.88412 28325 ft 339 kts 268°
2026-05-07 13:28 52.05747 105.84617 27919 ft 335 kts 268°
2026-05-07 13:28 52.05547 105.80860 27506 ft 332 kts 268°
2026-05-07 13:29 52.05347 105.77151 27104 ft 328 kts 268°
2026-05-07 13:29 52.05147 105.73470 26690 ft 326 kts 268°
2026-05-07 13:29 52.04949 105.69826 26277 ft 323 kts 268°
2026-05-07 13:29 52.04751 105.66200 25848 ft 321 kts 268°
2026-05-07 13:30 52.04554 105.62594 25417 ft 320 kts 268°
2026-05-07 13:30 52.04356 105.59000 24991 ft 318 kts 268°
2026-05-07 13:30 52.04160 105.55421 24544 ft 318 kts 268°
2026-05-07 13:30 52.03963 105.51837 24103 ft 318 kts 268°
2026-05-07 13:31 52.03766 105.48301 23663 ft 318 kts 268°
2026-05-07 13:31 52.03563 105.44716 23149 ft 318 kts 268°
2026-05-07 13:31 52.03362 105.41146 22707 ft 316 kts 268°
2026-05-07 13:31 52.03228 105.37598 22274 ft 314 kts 270°
2026-05-07 13:32 52.03151 105.34065 21841 ft 312 kts 271°
2026-05-07 13:32 52.03094 105.30555 21432 ft 310 kts 271°
2026-05-07 13:32 52.03040 105.27063 21013 ft 309 kts 271°
2026-05-07 13:32 52.02981 105.23570 20583 ft 309 kts 270°
2026-05-07 13:33 52.02914 105.20091 20175 ft 308 kts 270°
2026-05-07 13:33 52.02838 105.16604 19758 ft 308 kts 270°
2026-05-07 13:33 52.02756 105.13132 19357 ft 308 kts 270°
2026-05-07 13:33 52.02672 105.09652 18948 ft 308 kts 270°
2026-05-07 13:34 52.02588 105.06180 18542 ft 308 kts 270°
2026-05-07 13:34 52.02416 104.99226 17682 ft 308 kts 270°
2026-05-07 13:34 52.02328 104.95755 17290 ft 307 kts 270°
2026-05-07 13:35 52.02241 104.92302 16893 ft 306 kts 270°
2026-05-07 13:35 52.02153 104.88855 16517 ft 305 kts 270°
2026-05-07 13:35 52.02063 104.85432 16153 ft 303 kts 270°
2026-05-07 13:35 52.01975 104.82067 15785 ft 302 kts 269°
2026-05-07 13:36 52.01886 104.78620 15398 ft 301 kts 269°
2026-05-07 13:36 52.01952 104.75243 15023 ft 299 kts 280°
2026-05-07 13:36 52.02271 104.73075 14782 ft 298 kts 289°
2026-05-07 13:36 52.03462 104.69094 14289 ft 296 kts 299°
2026-05-07 13:37 52.04462 104.66173 13912 ft 296 kts 299°
2026-05-07 13:37 52.05455 104.63248 13512 ft 295 kts 299°
2026-05-07 13:37 52.06441 104.60333 13129 ft 294 kts 299°
2026-05-07 13:37 52.07420 104.57431 12759 ft 292 kts 299°
2026-05-07 13:38 52.08076 104.55484 12508 ft 291 kts 299°
2026-05-07 13:38 52.09044 104.52612 12135 ft 289 kts 299°
2026-05-07 13:38 52.10007 104.49758 11761 ft 287 kts 299°
2026-05-07 13:38 52.10964 104.46918 11379 ft 285 kts 299°
2026-05-07 13:39 52.11908 104.44118 11018 ft 284 kts 300°
2026-05-07 13:39 52.12850 104.41320 10653 ft 283 kts 300°
2026-05-07 13:39 52.13792 104.38514 10267 ft 282 kts 300°
2026-05-07 13:39 52.14729 104.35718 9901 ft 281 kts 300°
2026-05-07 13:40 52.15661 104.32941 9501 ft 279 kts 300°
2026-05-07 13:40 52.16587 104.30177 9121 ft 276 kts 300°
2026-05-07 13:40 52.17507 104.27426 8691 ft 276 kts 300°
2026-05-07 13:40 52.18420 104.24687 8294 ft 274 kts 300°
2026-05-07 13:41 52.19326 104.21967 7886 ft 272 kts 300°
2026-05-07 13:41 52.20227 104.19259 7475 ft 271 kts 300°
2026-05-07 13:41 52.21122 104.16566 7067 ft 270 kts 300°
2026-05-07 13:41 52.22012 104.13886 6651 ft 269 kts 299°
2026-05-07 13:42 52.22902 104.11206 6220 ft 268 kts 299°
2026-05-07 13:42 52.23879 104.08644 5910 ft 261 kts 313°
2026-05-07 13:42 52.25316 104.07038 5841 ft 245 kts 340°
2026-05-07 13:42 52.26938 104.06708 5738 ft 232 kts
2026-05-07 13:43 52.28437 104.07494 5634 ft 223 kts 22°
2026-05-07 13:43 52.29843 104.08486 5524 ft 222 kts 22°
2026-05-07 13:43 52.31151 104.09747 5409 ft 215 kts 40°
2026-05-07 13:43 52.32087 104.11547 5315 ft 207 kts 59°
2026-05-07 13:44 52.32620 104.13720 5161 ft 208 kts 77°
2026-05-07 13:44 52.32699 104.16119 4732 ft 215 kts 98°
2026-05-07 13:44 52.32276 104.18429 4381 ft 210 kts 114°
2026-05-07 13:44 52.31721 104.20529 4076 ft 191 kts 115°
2026-05-07 13:45 52.31220 104.22433 3812 ft 175 kts 115°
2026-05-07 13:45 52.30765 104.24163 3579 ft 159 kts 116°
2026-05-07 13:45 52.30343 104.25759 3355 ft 147 kts 116°
2026-05-07 13:45 52.29946 104.27262 3149 ft 142 kts 116°
2026-05-07 13:46 52.29560 104.28723 2942 ft 138 kts 117°
2026-05-07 13:46 52.29182 104.30151 2740 ft 136 kts 116°
2026-05-07 13:46 52.28806 104.31572 2532 ft 135 kts 116°
2026-05-07 13:46 52.28434 104.32974 2320 ft 135 kts 115°
2026-05-07 13:47 52.28062 104.34377 2115 ft 135 kts 115°
2026-05-07 13:47 52.27690 104.35784 1878 ft 134 kts 115°
2026-05-07 13:47 52.27339 104.37142 1722 ft 132 kts 115°
2026-05-07 13:47 52.26977 104.38471 1649 ft 121 kts 116°
2026-05-07 13:48 52.26760 104.39268 1651 ft 34 kts 112°
2026-05-07 13:48 52.26716 104.39300 1651 ft 3 kts 214°
2026-05-07 13:48 52.26687 104.39281 1651 ft 8 kts 203°
2026-05-07 13:48 52.26616 104.39231 1651 ft 10 kts 203°
2026-05-07 13:49 52.26610 104.39226 1651 ft 0 kts 203°
2026-05-07 13:50 52.26609 104.39225 1651 ft 2 kts 203°
2026-05-07 13:50 52.26573 104.39200 1651 ft 9 kts 203°
2026-05-07 13:51 52.26509 104.39128 1651 ft 13 kts 266°
2026-05-07 13:51 52.26545 104.39007 1651 ft 15 kts 287°
2026-05-07 13:51 52.26592 104.38823 1651 ft 21 kts 293°
2026-05-07 13:51 52.26657 104.38572 1651 ft 27 kts 292°
2026-05-07 13:52 52.26739 104.38273 1651 ft 30 kts 294°
2026-05-07 13:52 52.26821 104.37965 1651 ft 30 kts 293°
2026-05-07 13:52 52.26896 104.37680 1651 ft 27 kts 293°
2026-05-07 13:52 52.26974 104.37387 1651 ft 29 kts 293°
2026-05-07 13:53 52.26989 104.37192 1651 ft 15 kts 247°
2026-05-07 13:53 52.27007 104.37050 1651 ft 12 kts 289°
2026-05-07 13:53 52.27035 104.36926 1651 ft 11 kts 291°
2026-05-07 13:53 52.27060 104.36817 1651 ft 10 kts 291°
2026-05-07 13:54 52.27083 104.36719 1651 ft 9 kts 290°
2026-05-07 13:54 52.27102 104.36633 1651 ft 8 kts 289°
2026-05-07 13:54 52.27127 104.36520 1651 ft 14 kts 290°
2026-05-07 13:54 52.27169 104.36341 1651 ft 20 kts 290°
2026-05-07 13:55 52.27182 104.36084 1651 ft 25 kts 266°
2026-05-07 13:55 52.27174 104.35803 1651 ft 11 kts 268°
2026-05-07 13:55 52.27174 104.35777 1651 ft 0 kts 268°
2026-05-07 13:55 52.27172 104.35774 1651 ft 1 kts 249°
2026-05-07 13:56 52.27153 104.35721 1651 ft 9 kts 252°
2026-05-07 13:56 52.27156 104.35610 1651 ft 7 kts 326°
2026-05-07 13:56 52.27219 104.35617 1651 ft 8 kts 44°
2026-05-07 13:56 52.27231 104.35689 1651 ft 0 kts 88°